owner,sensor,date,latitude,longitude,vertical_datum,wind_speed,wind_to_direction,wind_speed_of_gust,qcFlag 
DISL,ioos:station:DISL:MBLA:1,2016-04-01T00:00:00Z,30.4367,-88.0117,14.2,0.0,254.5,-9999.0,'1114422,1111122,1111122' 
DISL,ioos:station:DISL:MBLA:1,2016-04-01T00:30:00Z,30.4367,-88.0117,14.2,0.0,0.0,-9999.0,'1114422,1114422,1111122' 
DISL,ioos:station:DISL:MBLA:1,2016-04-01T01:00:00Z,30.4367,-88.0117,14.2,0.01,256.8,-9999.0,'1111122,1111122,1111122' 
DISL,ioos:station:DISL:MBLA:1,2016-04-01T01:30:00Z,30.4367,-88.0117,14.2,0.0,256.8,-9999.0,'1114422,1111122,1111122' 
DISL,ioos:station:DISL:MBLA:1,2016-04-01T02:00:00Z,30.4367,-88.0117,14.2,0.0,0.0,-9999.0,'1114422,1114422,1111122' 
DISL,ioos:station:DISL:MBLA:1,2016-04-01T02:30:00Z,30.4367,-88.0117,14.2,0.0,0.0,-9999.0,'1114422,1114422,1111122' 
DISL,ioos:station:DISL:MBLA:1,2016-04-01T03:00:00Z,30.4367,-88.0117,14.2,0.0,0.0,-9999.0,'1114422,1114422,1111122' 
DISL,ioos:station:DISL:MBLA:1,2016-04-01T03:30:00Z,30.4367,-88.0117,14.2,0.0,250.9,-9999.0,'1114422,1111122,1111122' 
DISL,ioos:station:DISL:MBLA:1,2016-04-01T04:00:00Z,30.4367,-88.0117,14.2,0.0,260.9,-9999.0,'1114422,1111122,1111122' 
DISL,ioos:station:DISL:MBLA:1,2016-04-01T04:30:00Z,30.4367,-88.0117,14.2,0.0,257.5,-9999.0,'1114422,1111122,1111122' 
DISL,ioos:station:DISL:MBLA:1,2016-04-01T05:00:00Z,30.4367,-88.0117,14.2,0.0,276.7,-9999.0,'1114422,1111122,1111122' 
DISL,ioos:station:DISL:MBLA:1,2016-04-01T05:30:00Z,30.4367,-88.0117,14.2,0.0,0.0,-9999.0,'1114422,1114422,1111122' 
DISL,ioos:station:DISL:MBLA:1,2016-04-01T06:00:00Z,30.4367,-88.0117,14.2,0.0,267.4,-9999.0,'1114422,1111122,1111122' 
DISL,ioos:station:DISL:MBLA:1,2016-04-01T06:30:00Z,30.4367,-88.0117,14.2,0.0,264.3,-9999.0,'1114422,1111122,1111122' 
DISL,ioos:station:DISL:MBLA:1,2016-04-01T07:00:00Z,30.4367,-88.0117,14.2,0.0,0.0,-9999.0,'1114422,1114422,1111122' 
DISL,ioos:station:DISL:MBLA:1,2016-04-01T07:30:00Z,30.4367,-88.0117,14.2,0.0,273.5,-9999.0,'1114422,1111122,1111122' 
DISL,ioos:station:DISL:MBLA:1,2016-04-01T08:00:00Z,30.4367,-88.0117,14.2,0.0,271.2,-9999.0,'1114422,1111122,1111122' 
DISL,ioos:station:DISL:MBLA:1,2016-04-01T08:30:00Z,30.4367,-88.0117,14.2,0.0,263.7,-9999.0,'1114422,1111122,1111122' 
DISL,ioos:station:DISL:MBLA:1,2016-04-01T09:00:00Z,30.4367,-88.0117,14.2,0.0,262.0,-9999.0,'1114422,1111122,1111122' 
DISL,ioos:station:DISL:MBLA:1,2016-04-01T09:30:00Z,30.4367,-88.0117,14.2,0.0,0.0,-9999.0,'1114422,1114422,1111122' 
DISL,ioos:station:DISL:MBLA:1,2016-04-01T10:00:00Z,30.4367,-88.0117,14.2,0.0,268.5,-9999.0,'1114422,1111122,1111122' 
DISL,ioos:station:DISL:MBLA:1,2016-04-01T10:30:00Z,30.4367,-88.0117,14.2,0.02,272.7,-9999.0,'1111122,1111122,1111122' 
DISL,ioos:station:DISL:MBLA:1,2016-04-01T11:00:00Z,30.4367,-88.0117,14.2,0.0,0.0,-9999.0,'1114422,1114422,1111122' 
DISL,ioos:station:DISL:MBLA:1,2016-04-01T11:30:00Z,30.4367,-88.0117,14.2,0.0,265.7,-9999.0,'1114422,1111122,1111122' 
DISL,ioos:station:DISL:MBLA:1,2016-04-01T12:00:00Z,30.4367,-88.0117,14.2,0.0,0.0,-9999.0,'1114422,1114422,1111122' 
DISL,ioos:station:DISL:MBLA:1,2016-04-01T12:30:00Z,30.4367,-88.0117,14.2,0.0,0.0,-9999.0,'1114422,1114422,1111122' 
DISL,ioos:station:DISL:MBLA:1,2016-04-01T13:00:00Z,30.4367,-88.0117,14.2,0.0,276.4,-9999.0,'1114422,1111122,1111122' 
DISL,ioos:station:DISL:MBLA:1,2016-04-01T13:30:00Z,30.4367,-88.0117,14.2,0.0,0.0,-9999.0,'1114422,1114422,1111122' 
DISL,ioos:station:DISL:MBLA:1,2016-04-01T14:00:00Z,30.4367,-88.0117,14.2,0.02,301.4,-9999.0,'1111122,1111122,1111122' 
DISL,ioos:station:DISL:MBLA:1,2016-04-01T14:30:00Z,30.4367,-88.0117,14.2,0.33,312.1,-9999.0,'1111122,1111122,1111122' 
DISL,ioos:station:DISL:MBLA:1,2016-04-01T15:00:00Z,30.4367,-88.0117,14.2,0.31,14.82,-9999.0,'1111122,1111122,1111122' 
DISL,ioos:station:DISL:MBLA:1,2016-04-01T15:30:00Z,30.4367,-88.0117,14.2,0.2,9.21,-9999.0,'1111122,1111122,1111122' 
DISL,ioos:station:DISL:MBLA:1,2016-04-01T16:00:00Z,30.4367,-88.0117,14.2,0.46,354.5,-9999.0,'1111122,1111122,1111122' 
DISL,ioos:station:DISL:MBLA:1,2016-04-01T16:30:00Z,30.4367,-88.0117,14.2,0.3,313.2,-9999.0,'1111122,1111122,1111122' 
DISL,ioos:station:DISL:MBLA:1,2016-04-01T17:00:00Z,30.4367,-88.0117,14.2,0.29,277.9,-9999.0,'1111122,1111122,1111122' 
DISL,ioos:station:DISL:MBLA:1,2016-04-01T17:30:00Z,30.4367,-88.0117,14.2,0.0,0.0,-9999.0,'1114422,1114422,1111122' 
DISL,ioos:station:DISL:MBLA:1,2016-04-01T18:00:00Z,30.4367,-88.0117,14.2,0.0,0.0,-9999.0,'1114422,1114422,1111122' 
DISL,ioos:station:DISL:MBLA:1,2016-04-01T18:30:00Z,30.4367,-88.0117,14.2,0.0,0.0,-9999.0,'1114422,1114422,1111122' 
DISL,ioos:station:DISL:MBLA:1,2016-04-01T19:00:00Z,30.4367,-88.0117,14.2,0.0,0.0,-9999.0,'1114422,1114422,1111122' 
DISL,ioos:station:DISL:MBLA:1,2016-04-01T19:30:00Z,30.4367,-88.0117,14.2,0.0,0.0,-9999.0,'1114422,1114422,1111122' 
DISL,ioos:station:DISL:MBLA:1,2016-04-01T20:00:00Z,30.4367,-88.0117,14.2,0.0,0.0,-9999.0,'1114422,1114422,1111122' 
DISL,ioos:station:DISL:MBLA:1,2016-04-01T20:30:00Z,30.4367,-88.0117,14.2,0.97,298.8,-9999.0,'1111122,1111122,1111122' 
DISL,ioos:station:DISL:MBLA:1,2016-04-01T21:00:00Z,30.4367,-88.0117,14.2,1.23,202.9,-9999.0,'1111122,1111122,1111122' 
DISL,ioos:station:DISL:MBLA:1,2016-04-01T21:30:00Z,30.4367,-88.0117,14.2,0.0,0.0,-9999.0,'1114422,1114422,1111122' 
DISL,ioos:station:DISL:MBLA:1,2016-04-01T22:00:00Z,30.4367,-88.0117,14.2,0.0,0.0,-9999.0,'1114422,1114422,1111122' 
DISL,ioos:station:DISL:MBLA:1,2016-04-01T22:30:00Z,30.4367,-88.0117,14.2,0.74,284.9,-9999.0,'1111122,1111122,1111122' 
DISL,ioos:station:DISL:MBLA:1,2016-04-01T23:00:00Z,30.4367,-88.0117,14.2,0.92,293.2,-9999.0,'1111122,1111122,1111122' 
DISL,ioos:station:DISL:MBLA:1,2016-04-01T23:30:00Z,30.4367,-88.0117,14.2,0.42,265.4,-9999.0,'1111122,1111122,1111122' 
DISL,ioos:station:DISL:MBLA:1,2016-04-02T00:00:00Z,30.4367,-88.0117,14.2,1.28,258.4,-9999.0,'1111122,1111122,1111122' 
DISL,ioos:station:DISL:MBLA:1,2016-04-02T00:30:00Z,30.4367,-88.0117,14.2,1.17,292.2,-9999.0,'1111122,1111122,1111122' 
DISL,ioos:station:DISL:MBLA:1,2016-04-02T01:00:00Z,30.4367,-88.0117,14.2,1.13,281.9,-9999.0,'1111122,1111122,1111122' 
DISL,ioos:station:DISL:MBLA:1,2016-04-02T01:30:00Z,30.4367,-88.0117,14.2,1.1,283.9,-9999.0,'1111122,1111122,1111122' 
DISL,ioos:station:DISL:MBLA:1,2016-04-02T02:00:00Z,30.4367,-88.0117,14.2,0.85,264.9,-9999.0,'1111122,1111122,1111122' 
DISL,ioos:station:DISL:MBLA:1,2016-04-02T02:30:00Z,30.4367,-88.0117,14.2,1.08,278.1,-9999.0,'1111122,1111122,1111122' 
DISL,ioos:station:DISL:MBLA:1,2016-04-02T03:00:00Z,30.4367,-88.0117,14.2,1.08,270.8,-9999.0,'1111122,1111122,1111122' 
DISL,ioos:station:DISL:MBLA:1,2016-04-02T03:30:00Z,30.4367,-88.0117,14.2,1.2,284.2,-9999.0,'1111122,1111122,1111122' 
DISL,ioos:station:DISL:MBLA:1,2016-04-02T04:00:00Z,30.4367,-88.0117,14.2,0.73,270.4,-9999.0,'1111122,1111122,1111122' 
DISL,ioos:station:DISL:MBLA:1,2016-04-02T04:30:00Z,30.4367,-88.0117,14.2,1.06,261.9,-9999.0,'1111122,1111122,1111122' 
DISL,ioos:station:DISL:MBLA:1,2016-04-02T05:00:00Z,30.4367,-88.0117,14.2,1.29,267.3,-9999.0,'1111122,1111122,1111122' 
DISL,ioos:station:DISL:MBLA:1,2016-04-02T05:30:00Z,30.4367,-88.0117,14.2,1.4,271.4,-9999.0,'1111122,1111122,1111122' 
DISL,ioos:station:DISL:MBLA:1,2016-04-02T06:00:00Z,30.4367,-88.0117,14.2,1.35,265.5,-9999.0,'1111122,1111122,1111122' 
DISL,ioos:station:DISL:MBLA:1,2016-04-02T06:30:00Z,30.4367,-88.0117,14.2,1.24,269.6,-9999.0,'1111122,1111122,1111122' 
DISL,ioos:station:DISL:MBLA:1,2016-04-02T07:00:00Z,30.4367,-88.0117,14.2,1.22,262.8,-9999.0,'1111122,1111122,1111122' 
DISL,ioos:station:DISL:MBLA:1,2016-04-02T07:30:00Z,30.4367,-88.0117,14.2,1.2,264.4,-9999.0,'1111122,1111122,1111122' 
DISL,ioos:station:DISL:MBLA:1,2016-04-02T08:00:00Z,30.4367,-88.0117,14.2,1.4,271.4,-9999.0,'1111122,1111122,1111122' 
DISL,ioos:station:DISL:MBLA:1,2016-04-02T08:30:00Z,30.4367,-88.0117,14.2,1.41,267.7,-9999.0,'1111122,1111122,1111122' 
DISL,ioos:station:DISL:MBLA:1,2016-04-02T09:00:00Z,30.4367,-88.0117,14.2,1.19,257.5,-9999.0,'1111122,1111122,1111122' 
DISL,ioos:station:DISL:MBLA:1,2016-04-02T09:30:00Z,30.4367,-88.0117,14.2,1.24,262.8,-9999.0,'1111122,1111122,1111122' 
DISL,ioos:station:DISL:MBLA:1,2016-04-02T10:00:00Z,30.4367,-88.0117,14.2,1.31,262.3,-9999.0,'1111122,1111122,1111122' 
DISL,ioos:station:DISL:MBLA:1,2016-04-02T10:30:00Z,30.4367,-88.0117,14.2,1.25,267.0,-9999.0,'1111122,1111122,1111122' 
DISL,ioos:station:DISL:MBLA:1,2016-04-02T11:00:00Z,30.4367,-88.0117,14.2,1.54,272.3,-9999.0,'1111122,1111122,1111122' 
DISL,ioos:station:DISL:MBLA:1,2016-04-02T11:30:00Z,30.4367,-88.0117,14.2,1.11,258.0,-9999.0,'1111122,1111122,1111122' 
DISL,ioos:station:DISL:MBLA:1,2016-04-02T12:00:00Z,30.4367,-88.0117,14.2,1.12,258.7,-9999.0,'1111122,1111122,1111122' 
DISL,ioos:station:DISL:MBLA:1,2016-04-02T12:30:00Z,30.4367,-88.0117,14.2,1.12,257.0,-9999.0,'1111122,1111122,1111122' 
DISL,ioos:station:DISL:MBLA:1,2016-04-02T13:00:00Z,30.4367,-88.0117,14.2,1.06,255.4,-9999.0,'1111122,1111122,1111122' 
DISL,ioos:station:DISL:MBLA:1,2016-04-02T13:30:00Z,30.4367,-88.0117,14.2,1.28,263.0,-9999.0,'1111122,1111122,1111122' 
DISL,ioos:station:DISL:MBLA:1,2016-04-02T14:00:00Z,30.4367,-88.0117,14.2,1.08,262.6,-9999.0,'1111122,1111122,1111122' 
DISL,ioos:station:DISL:MBLA:1,2016-04-02T14:30:00Z,30.4367,-88.0117,14.2,1.16,266.6,-9999.0,'1111122,1111122,1111122' 
DISL,ioos:station:DISL:MBLA:1,2016-04-02T15:00:00Z,30.4367,-88.0117,14.2,1.42,275.9,-9999.0,'1111122,1111122,1111122' 
DISL,ioos:station:DISL:MBLA:1,2016-04-02T15:30:00Z,30.4367,-88.0117,14.2,1.35,272.4,-9999.0,'1111122,1111122,1111122' 
DISL,ioos:station:DISL:MBLA:1,2016-04-02T16:00:00Z,30.4367,-88.0117,14.2,1.4,275.2,-9999.0,'1111122,1111122,1111122' 
DISL,ioos:station:DISL:MBLA:1,2016-04-02T16:30:00Z,30.4367,-88.0117,14.2,1.13,269.7,-9999.0,'1111122,1111122,1111122' 
DISL,ioos:station:DISL:MBLA:1,2016-04-02T17:00:00Z,30.4367,-88.0117,14.2,1.03,271.6,-9999.0,'1111122,1111122,1111122' 
DISL,ioos:station:DISL:MBLA:1,2016-04-02T17:30:00Z,30.4367,-88.0117,14.2,1.07,269.0,-9999.0,'1111122,1111122,1111122' 
DISL,ioos:station:DISL:MBLA:1,2016-04-02T18:00:00Z,30.4367,-88.0117,14.2,0.64,256.3,-9999.0,'1111122,1111122,1111122' 
DISL,ioos:station:DISL:MBLA:1,2016-04-02T18:30:00Z,30.4367,-88.0117,14.2,0.33,252.3,-9999.0,'1111122,1111122,1111122' 
DISL,ioos:station:DISL:MBLA:1,2016-04-02T19:00:00Z,30.4367,-88.0117,14.2,0.39,246.0,-9999.0,'1111122,1111122,1111122' 
DISL,ioos:station:DISL:MBLA:1,2016-04-02T19:30:00Z,30.4367,-88.0117,14.2,0.59,252.1,-9999.0,'1111122,1111122,1111122' 
DISL,ioos:station:DISL:MBLA:1,2016-04-02T20:00:00Z,30.4367,-88.0117,14.2,0.14,257.6,-9999.0,'1111122,1111122,1111122' 
DISL,ioos:station:DISL:MBLA:1,2016-04-02T20:30:00Z,30.4367,-88.0117,14.2,0.25,253.6,-9999.0,'1111122,1111122,1111122' 
DISL,ioos:station:DISL:MBLA:1,2016-04-02T21:00:00Z,30.4367,-88.0117,14.2,0.08,262.9,-9999.0,'1111122,1111122,1111122' 
DISL,ioos:station:DISL:MBLA:1,2016-04-02T21:30:00Z,30.4367,-88.0117,14.2,0.38,248.8,-9999.0,'1111122,1111122,1111122' 
DISL,ioos:station:DISL:MBLA:1,2016-04-02T22:00:00Z,30.4367,-88.0117,14.2,0.23,256.9,-9999.0,'1111122,1111122,1111122' 
DISL,ioos:station:DISL:MBLA:1,2016-04-02T22:30:00Z,30.4367,-88.0117,14.2,0.4,246.7,-9999.0,'1111122,1111122,1111122' 
DISL,ioos:station:DISL:MBLA:1,2016-04-02T23:00:00Z,30.4367,-88.0117,14.2,0.65,255.9,-9999.0,'1111122,1111122,1111122' 
DISL,ioos:station:DISL:MBLA:1,2016-04-02T23:30:00Z,30.4367,-88.0117,14.2,0.4,255.7,-9999.0,'1111122,1111122,1111122' 
DISL,ioos:station:DISL:MBLA:1,2016-04-03T00:00:00Z,30.4367,-88.0117,14.2,0.55,251.2,-9999.0,'1111122,1111122,1111122' 
DISL,ioos:station:DISL:MBLA:1,2016-04-03T00:30:00Z,30.4367,-88.0117,14.2,0.16,68.54,-9999.0,'1111122,1111122,1111122' 
DISL,ioos:station:DISL:MBLA:1,2016-04-03T01:00:00Z,30.4367,-88.0117,14.2,0.11,56.95,-9999.0,'1111122,1111122,1111122' 
DISL,ioos:station:DISL:MBLA:1,2016-04-03T01:30:00Z,30.4367,-88.0117,14.2,0.13,58.01,-9999.0,'1111122,1111122,1111122' 
DISL,ioos:station:DISL:MBLA:1,2016-04-03T02:00:00Z,30.4367,-88.0117,14.2,0.15,60.65,-9999.0,'1111122,1111122,1111122' 
DISL,ioos:station:DISL:MBLA:1,2016-04-03T02:30:00Z,30.4367,-88.0117,14.2,0.15,63.31,-9999.0,'1111122,1111122,1111122' 
DISL,ioos:station:DISL:MBLA:1,2016-04-03T03:00:00Z,30.4367,-88.0117,14.2,0.14,57.6,-9999.0,'1111122,1111122,1111122' 
DISL,ioos:station:DISL:MBLA:1,2016-04-03T03:30:00Z,30.4367,-88.0117,14.2,0.17,54.36,-9999.0,'1111122,1111122,1111122' 
DISL,ioos:station:DISL:MBLA:1,2016-04-03T04:00:00Z,30.4367,-88.0117,14.2,0.17,52.84,-9999.0,'1111122,1111122,1111122' 
DISL,ioos:station:DISL:MBLA:1,2016-04-03T04:30:00Z,30.4367,-88.0117,14.2,0.19,51.35,-9999.0,'1111122,1111122,1111122' 
DISL,ioos:station:DISL:MBLA:1,2016-04-03T05:00:00Z,30.4367,-88.0117,14.2,0.2,54.77,-9999.0,'1111122,1111122,1111122' 
DISL,ioos:station:DISL:MBLA:1,2016-04-03T05:30:00Z,30.4367,-88.0117,14.2,0.2,56.37,-9999.0,'1111122,1111122,1111122' 
DISL,ioos:station:DISL:MBLA:1,2016-04-03T06:00:00Z,30.4367,-88.0117,14.2,0.23,62.97,-9999.0,'1111122,1111122,1111122' 
DISL,ioos:station:DISL:MBLA:1,2016-04-03T06:30:00Z,30.4367,-88.0117,14.2,0.2,67.37,-9999.0,'1111122,1111122,1111122' 
DISL,ioos:station:DISL:MBLA:1,2016-04-03T07:00:00Z,30.4367,-88.0117,14.2,0.19,71.6,-9999.0,'1111122,1111122,1111122' 
DISL,ioos:station:DISL:MBLA:1,2016-04-03T07:30:00Z,30.4367,-88.0117,14.2,0.18,71.92,-9999.0,'1111122,1111122,1111122' 
DISL,ioos:station:DISL:MBLA:1,2016-04-03T08:00:00Z,30.4367,-88.0117,14.2,0.11,69.85,-9999.0,'1111122,1111122,1111122' 
DISL,ioos:station:DISL:MBLA:1,2016-04-03T08:30:00Z,30.4367,-88.0117,14.2,0.11,69.43,-9999.0,'1111122,1111122,1111122' 
DISL,ioos:station:DISL:MBLA:1,2016-04-03T09:00:00Z,30.4367,-88.0117,14.2,0.13,73.92,-9999.0,'1111122,1111122,1111122' 
DISL,ioos:station:DISL:MBLA:1,2016-04-03T09:30:00Z,30.4367,-88.0117,14.2,0.08,74.14,-9999.0,'1111122,1111122,1111122' 
DISL,ioos:station:DISL:MBLA:1,2016-04-03T10:00:00Z,30.4367,-88.0117,14.2,0.02,77.06,-9999.0,'1111122,1111122,1111122' 
DISL,ioos:station:DISL:MBLA:1,2016-04-03T10:30:00Z,30.4367,-88.0117,14.2,0.01,65.49,-9999.0,'1111122,1111122,1111122' 
DISL,ioos:station:DISL:MBLA:1,2016-04-03T11:00:00Z,30.4367,-88.0117,14.2,0.0,80.9,-9999.0,'1114422,1111122,1111122' 
DISL,ioos:station:DISL:MBLA:1,2016-04-03T11:30:00Z,30.4367,-88.0117,14.2,0.03,333.1,-9999.0,'1111122,1111122,1111122' 
DISL,ioos:station:DISL:MBLA:1,2016-04-03T12:00:00Z,30.4367,-88.0117,14.2,0.0,0.0,-9999.0,'1114422,1114422,1111122' 
DISL,ioos:station:DISL:MBLA:1,2016-04-03T12:30:00Z,30.4367,-88.0117,14.2,0.0,0.0,-9999.0,'1114422,1114422,1111122' 
DISL,ioos:station:DISL:MBLA:1,2016-04-03T13:00:00Z,30.4367,-88.0117,14.2,0.0,0.0,-9999.0,'1114422,1114422,1111122' 
DISL,ioos:station:DISL:MBLA:1,2016-04-03T13:30:00Z,30.4367,-88.0117,14.2,0.0,0.0,-9999.0,'1114422,1114422,1111122' 
DISL,ioos:station:DISL:MBLA:1,2016-04-03T14:00:00Z,30.4367,-88.0117,14.2,0.04,263.8,-9999.0,'1111122,1111122,1111122' 
DISL,ioos:station:DISL:MBLA:1,2016-04-03T14:30:00Z,30.4367,-88.0117,14.2,0.27,266.9,-9999.0,'1111122,1111122,1111122' 
DISL,ioos:station:DISL:MBLA:1,2016-04-03T15:00:00Z,30.4367,-88.0117,14.2,1.1,271.7,-9999.0,'1111122,1111122,1111122' 
DISL,ioos:station:DISL:MBLA:1,2016-04-03T15:30:00Z,30.4367,-88.0117,14.2,0.8,272.0,-9999.0,'1111122,1111122,1111122' 
DISL,ioos:station:DISL:MBLA:1,2016-04-03T16:00:00Z,30.4367,-88.0117,14.2,0.69,273.6,-9999.0,'1111122,1111122,1111122' 
DISL,ioos:station:DISL:MBLA:1,2016-04-03T16:30:00Z,30.4367,-88.0117,14.2,0.0,267.1,-9999.0,'1114422,1111122,1111122' 
DISL,ioos:station:DISL:MBLA:1,2016-04-03T17:00:00Z,30.4367,-88.0117,14.2,0.0,0.0,-9999.0,'1114422,1114422,1111122' 
DISL,ioos:station:DISL:MBLA:1,2016-04-03T17:30:00Z,30.4367,-88.0117,14.2,0.0,0.0,-9999.0,'1114422,1114422,1111122' 
DISL,ioos:station:DISL:MBLA:1,2016-04-03T18:00:00Z,30.4367,-88.0117,14.2,0.0,0.0,-9999.0,'1114422,1114422,1111122' 
DISL,ioos:station:DISL:MBLA:1,2016-04-03T18:30:00Z,30.4367,-88.0117,14.2,0.0,0.0,-9999.0,'1114422,1114422,1111122' 
DISL,ioos:station:DISL:MBLA:1,2016-04-03T19:00:00Z,30.4367,-88.0117,14.2,0.0,0.0,-9999.0,'1114422,1114422,1111122' 
DISL,ioos:station:DISL:MBLA:1,2016-04-03T19:30:00Z,30.4367,-88.0117,14.2,0.0,0.0,-9999.0,'1114422,1114422,1111122' 
DISL,ioos:station:DISL:MBLA:1,2016-04-03T20:00:00Z,30.4367,-88.0117,14.2,0.0,0.0,-9999.0,'1114422,1114422,1111122' 
DISL,ioos:station:DISL:MBLA:1,2016-04-03T20:30:00Z,30.4367,-88.0117,14.2,0.0,0.0,-9999.0,'1114422,1114422,1111122' 
DISL,ioos:station:DISL:MBLA:1,2016-04-03T21:00:00Z,30.4367,-88.0117,14.2,0.0,296.4,-9999.0,'1114422,1111122,1111122' 
DISL,ioos:station:DISL:MBLA:1,2016-04-03T21:30:00Z,30.4367,-88.0117,14.2,0.01,293.7,-9999.0,'1111122,1111122,1111122' 
DISL,ioos:station:DISL:MBLA:1,2016-04-03T22:00:00Z,30.4367,-88.0117,14.2,0.0,285.9,-9999.0,'1114422,1111122,1111122' 
DISL,ioos:station:DISL:MBLA:1,2016-04-03T22:30:00Z,30.4367,-88.0117,14.2,0.07,226.4,-9999.0,'1111122,1111122,1111122' 
DISL,ioos:station:DISL:MBLA:1,2016-04-03T23:00:00Z,30.4367,-88.0117,14.2,0.0,306.7,-9999.0,'1114422,1111122,1111122' 
DISL,ioos:station:DISL:MBLA:1,2016-04-03T23:30:00Z,30.4367,-88.0117,14.2,0.15,305.3,-9999.0,'1111122,1111122,1111122' 
DISL,ioos:station:DISL:MBLA:1,2016-04-04T00:00:00Z,30.4367,-88.0117,14.2,0.03,309.7,-9999.0,'1111122,1111122,1111122' 
DISL,ioos:station:DISL:MBLA:1,2016-04-04T00:30:00Z,30.4367,-88.0117,14.2,0.01,318.5,-9999.0,'1111122,1111122,1111122' 
DISL,ioos:station:DISL:MBLA:1,2016-04-04T01:00:00Z,30.4367,-88.0117,14.2,0.05,321.1,-9999.0,'1111122,1111122,1111122' 
DISL,ioos:station:DISL:MBLA:1,2016-04-04T01:30:00Z,30.4367,-88.0117,14.2,0.49,320.8,-9999.0,'1111122,1111122,1111122' 
DISL,ioos:station:DISL:MBLA:1,2016-04-04T02:00:00Z,30.4367,-88.0117,14.2,0.83,334.1,-9999.0,'1111122,1111122,1111122' 
DISL,ioos:station:DISL:MBLA:1,2016-04-04T02:30:00Z,30.4367,-88.0117,14.2,0.8,336.1,-9999.0,'1111122,1111122,1111122' 
DISL,ioos:station:DISL:MBLA:1,2016-04-04T03:00:00Z,30.4367,-88.0117,14.2,0.86,334.6,-9999.0,'1111122,1111122,1111122' 
DISL,ioos:station:DISL:MBLA:1,2016-04-04T03:30:00Z,30.4367,-88.0117,14.2,0.8,326.4,-9999.0,'1111122,1111122,1111122' 
DISL,ioos:station:DISL:MBLA:1,2016-04-04T04:00:00Z,30.4367,-88.0117,14.2,0.71,327.1,-9999.0,'1111122,1111122,1111122' 
DISL,ioos:station:DISL:MBLA:1,2016-04-04T04:30:00Z,30.4367,-88.0117,14.2,0.77,324.4,-9999.0,'1111122,1111122,1111122' 
DISL,ioos:station:DISL:MBLA:1,2016-04-04T05:00:00Z,30.4367,-88.0117,14.2,0.54,316.3,-9999.0,'1111122,1111122,1111122' 
DISL,ioos:station:DISL:MBLA:1,2016-04-04T05:30:00Z,30.4367,-88.0117,14.2,0.4,318.4,-9999.0,'1111122,1111122,1111122' 
DISL,ioos:station:DISL:MBLA:1,2016-04-04T06:00:00Z,30.4367,-88.0117,14.2,0.48,328.8,-9999.0,'1111122,1111122,1111122' 
DISL,ioos:station:DISL:MBLA:1,2016-04-04T06:30:00Z,30.4367,-88.0117,14.2,0.72,338.6,-9999.0,'1111122,1111122,1111122' 
DISL,ioos:station:DISL:MBLA:1,2016-04-04T07:00:00Z,30.4367,-88.0117,14.2,0.11,346.7,-9999.0,'1111122,1111122,1111122' 
DISL,ioos:station:DISL:MBLA:1,2016-04-04T07:30:00Z,30.4367,-88.0117,14.2,0.16,357.2,-9999.0,'1111122,1111122,1111122' 
DISL,ioos:station:DISL:MBLA:1,2016-04-04T08:00:00Z,30.4367,-88.0117,14.2,0.13,357.7,-9999.0,'1111122,1111122,1111122' 
DISL,ioos:station:DISL:MBLA:1,2016-04-04T08:30:00Z,30.4367,-88.0117,14.2,0.12,1.49,-9999.0,'1111122,1111122,1111122' 
DISL,ioos:station:DISL:MBLA:1,2016-04-04T09:00:00Z,30.4367,-88.0117,14.2,0.37,199.3,-9999.0,'1111122,1111122,1111122' 
DISL,ioos:station:DISL:MBLA:1,2016-04-04T09:30:00Z,30.4367,-88.0117,14.2,0.36,207.8,-9999.0,'1111122,1111122,1111122' 
DISL,ioos:station:DISL:MBLA:1,2016-04-04T10:00:00Z,30.4367,-88.0117,14.2,0.35,212.8,-9999.0,'1111122,1111122,1111122' 
DISL,ioos:station:DISL:MBLA:1,2016-04-04T10:30:00Z,30.4367,-88.0117,14.2,0.37,218.5,-9999.0,'1111122,1111122,1111122' 
DISL,ioos:station:DISL:MBLA:1,2016-04-04T11:00:00Z,30.4367,-88.0117,14.2,0.44,219.5,-9999.0,'1111122,1111122,1111122' 
DISL,ioos:station:DISL:MBLA:1,2016-04-04T11:30:00Z,30.4367,-88.0117,14.2,0.42,217.6,-9999.0,'1111122,1111122,1111122' 
DISL,ioos:station:DISL:MBLA:1,2016-04-04T12:00:00Z,30.4367,-88.0117,14.2,0.43,223.1,-9999.0,'1111122,1111122,1111122' 
DISL,ioos:station:DISL:MBLA:1,2016-04-04T12:30:00Z,30.4367,-88.0117,14.2,0.37,224.0,-9999.0,'1111122,1111122,1111122' 
DISL,ioos:station:DISL:MBLA:1,2016-04-04T13:00:00Z,30.4367,-88.0117,14.2,0.14,253.9,-9999.0,'1111122,1111122,1111122' 
DISL,ioos:station:DISL:MBLA:1,2016-04-04T13:30:00Z,30.4367,-88.0117,14.2,0.02,257.7,-9999.0,'1111122,1111122,1111122' 
DISL,ioos:station:DISL:MBLA:1,2016-04-04T14:00:00Z,30.4367,-88.0117,14.2,0.22,246.7,-9999.0,'1111122,1111122,1111122' 
DISL,ioos:station:DISL:MBLA:1,2016-04-04T14:30:00Z,30.4367,-88.0117,14.2,0.05,258.7,-9999.0,'1111122,1111122,1111122' 
DISL,ioos:station:DISL:MBLA:1,2016-04-04T15:00:00Z,30.4367,-88.0117,14.2,0.0,270.7,-9999.0,'1114422,1111122,1111122' 
DISL,ioos:station:DISL:MBLA:1,2016-04-04T15:30:00Z,30.4367,-88.0117,14.2,0.0,0.0,-9999.0,'1114422,1114422,1111122' 
DISL,ioos:station:DISL:MBLA:1,2016-04-04T16:00:00Z,30.4367,-88.0117,14.2,0.0,297.3,-9999.0,'1114422,1111122,1111122' 
DISL,ioos:station:DISL:MBLA:1,2016-04-04T16:30:00Z,30.4367,-88.0117,14.2,0.0,0.0,-9999.0,'1114422,1114422,1111122' 
DISL,ioos:station:DISL:MBLA:1,2016-04-04T17:00:00Z,30.4367,-88.0117,14.2,0.0,0.0,-9999.0,'1114422,1114422,1111122' 
DISL,ioos:station:DISL:MBLA:1,2016-04-04T17:30:00Z,30.4367,-88.0117,14.2,0.0,0.0,-9999.0,'1114422,1114422,1111122' 
DISL,ioos:station:DISL:MBLA:1,2016-04-04T18:00:00Z,30.4367,-88.0117,14.2,0.0,0.0,-9999.0,'1114422,1114422,1111122' 
DISL,ioos:station:DISL:MBLA:1,2016-04-04T18:30:00Z,30.4367,-88.0117,14.2,0.0,0.0,-9999.0,'1114422,1114422,1111122' 
DISL,ioos:station:DISL:MBLA:1,2016-04-04T19:00:00Z,30.4367,-88.0117,14.2,0.0,0.0,-9999.0,'1114422,1114422,1111122' 
DISL,ioos:station:DISL:MBLA:1,2016-04-04T19:30:00Z,30.4367,-88.0117,14.2,0.0,0.0,-9999.0,'1114422,1114422,1111122' 
DISL,ioos:station:DISL:MBLA:1,2016-04-04T20:00:00Z,30.4367,-88.0117,14.2,0.0,289.0,-9999.0,'1114422,1111122,1111122' 
DISL,ioos:station:DISL:MBLA:1,2016-04-04T20:30:00Z,30.4367,-88.0117,14.2,0.0,286.6,-9999.0,'1114422,1111122,1111122' 
DISL,ioos:station:DISL:MBLA:1,2016-04-04T21:00:00Z,30.4367,-88.0117,14.2,0.04,283.4,-9999.0,'1111122,1111122,1111122' 
DISL,ioos:station:DISL:MBLA:1,2016-04-04T21:30:00Z,30.4367,-88.0117,14.2,0.11,286.7,-9999.0,'1111122,1111122,1111122' 
DISL,ioos:station:DISL:MBLA:1,2016-04-04T22:00:00Z,30.4367,-88.0117,14.2,0.17,300.0,-9999.0,'1111122,1111122,1111122' 
DISL,ioos:station:DISL:MBLA:1,2016-04-04T22:30:00Z,30.4367,-88.0117,14.2,0.08,310.4,-9999.0,'1111122,1111122,1111122' 
DISL,ioos:station:DISL:MBLA:1,2016-04-04T23:00:00Z,30.4367,-88.0117,14.2,0.24,323.9,-9999.0,'1111122,1111122,1111122' 
DISL,ioos:station:DISL:MBLA:1,2016-04-04T23:30:00Z,30.4367,-88.0117,14.2,0.17,330.3,-9999.0,'1111122,1111122,1111122' 
DISL,ioos:station:DISL:MBLA:1,2016-04-05T00:00:00Z,30.4367,-88.0117,14.2,0.13,329.4,-9999.0,'1111122,1111122,1111122' 
DISL,ioos:station:DISL:MBLA:1,2016-04-05T00:30:00Z,30.4367,-88.0117,14.2,0.13,334.3,-9999.0,'1111122,1111122,1111122' 
DISL,ioos:station:DISL:MBLA:1,2016-04-05T01:00:00Z,30.4367,-88.0117,14.2,0.04,337.0,-9999.0,'1111122,1111122,1111122' 
DISL,ioos:station:DISL:MBLA:1,2016-04-05T01:30:00Z,30.4367,-88.0117,14.2,0.06,331.9,-9999.0,'1111122,1111122,1111122' 
DISL,ioos:station:DISL:MBLA:1,2016-04-05T02:00:00Z,30.4367,-88.0117,14.2,0.05,331.9,-9999.0,'1111122,1111122,1111122' 
DISL,ioos:station:DISL:MBLA:1,2016-04-05T02:30:00Z,30.4367,-88.0117,14.2,0.09,333.0,-9999.0,'1111122,1111122,1111122' 
DISL,ioos:station:DISL:MBLA:1,2016-04-05T03:00:00Z,30.4367,-88.0117,14.2,0.04,336.3,-9999.0,'1111122,1111122,1111122' 
DISL,ioos:station:DISL:MBLA:1,2016-04-05T03:30:00Z,30.4367,-88.0117,14.2,0.42,335.4,-9999.0,'1111122,1111122,1111122' 
DISL,ioos:station:DISL:MBLA:1,2016-04-05T04:00:00Z,30.4367,-88.0117,14.2,0.38,336.4,-9999.0,'1111122,1111122,1111122' 
DISL,ioos:station:DISL:MBLA:1,2016-04-05T04:30:00Z,30.4367,-88.0117,14.2,0.56,335.7,-9999.0,'1111122,1111122,1111122' 